Location: Tierra del Sol
(32.6128°N, 116.3319°W)
Time: 16:49:06
(UTC-07:00)

Vanguard 2 - Pass Details

Date: 03 May 2018
Orbit: 554 x 2938 km, 32.9° (Epoch: 18 September)

Event Time Altitude Azimuth Distance (km) Brightness Sun altitude
Rises 22:32:13 0° 277° (W) 6,266 12.7 -32.3°
Reaches altitude 10° 22:36:51 10° 277° (W) 4,951 12.1 -32.9°
Maximum altitude 22:50:05 86° 191° (S) 1,592 8.8 -34.5°
Enters shadow 22:50:38 81° 129° (SE) 1,570 8.8 -34.6°
Drops below altitude 10° 22:57:42 10° 103° (ESE) 2,993 - -35.4°
Sets 22:59:52 0° 103° (ESE) 3,719 - -35.6°
